Temp
-2 -2 -2 -2 -2 -2 -2 -2 -2 -2 -2 -2 -2 -2 -2 -3 -3 -3 -4 -4 -4 -4 -5 -6 -6 -6 -6 -7 -7 -6 -6 -7 -7 -7 -8 -8 -8 -8 -7 -7 -7 -7 -7 -7 -7
-2 -2 -2 -2 -2 -2 -2 -2 -2 -2 -2 -2 -2 -2 -2 -3 -3 -4 -3 -4 -4 -4 -4 -5 -6 -6 -6 -7 -7 -7 -6 -6 -7 -7 -8 -8 -8 -8 -8 -7 -7 -7 -7 -8 -7
-2 -2 -2 -2 -2 -2 -2 -2 -2 -2 -2 -2 -2 -2 -2 -3 -3 -4 -4 -4 -4 -4 -5 -5 -5 -6 -6 -7 -7 -6 -6 -6 -7 -8 -8 -8 -8 -8 -8 -7 -8 -8 -7 -8 -8
-2 -2 -2 -2 -2 -2 -2 -2 -2 -2 -2 -2 -2 -2 -2 -3 -3 -4 -4 -4 -4 -4 -5 -5 -5 -6 -6 -7 -6 -6 -6 -5 -5 -7 -8 -8 -8 -8 -8 -8 -8 -8 -7 -7 -8
-3 -3 -3 -3 -3 -3 -3 -3 -3 -3 -3 -3 -3 -3 -3 -3 -4 -3 -4 -5 -4 -4 -5 -5 -5 -5 -6 -6 -7 -6 -7 -6 -5 -7 -8 -8 -8 -8 -8 -8 -8 -8 -8 -7 -7
-3 -3 -3 -3 -3 -3 -4 -3 -3 -3 -3 -3 -3 -3 -3 -3 -4 -4 -4 -5 -5 -5 -5 -5 -6 -6 -6 -6 -6 -5 -6 -7 -6 -7 -8 -8 -8 -7 -7 -7 -8 -8 -8 -7 -7
-3 -3 -3 -3 -3 -3 -3 -3 -3 -3 -3 -3 -3 -3 -2 -5 -4 -4 -5 -5 -5 -6 -6 -6 -5 -5 -5 -6 -6 -5 -5 -5 -7 -7 -8 -8 -8 -7 -8 -8 -8 -8 -8 -8 -7
-3 -3 -3 -3 -3 -3 -3 -3 -3 -3 -3 -3 -3 -3 -3 -5 -4 -5 -5 -5 -6 -6 -7 -7 -6 -5 -5 -6 -6 -5 -5 -5 -6 -7 -8 -8 -6 -7 -8 -8 -8 -7 -8 -8 -8
-3 -3 -3 -3 -4 -4 -3 -4 -4 -3 -3 -3 -3 -3 -2 -4 -4 -5 -4 -5 -4 -5 -6 -6 -6 -6 -5 -5 -5 -5 -5 -5 -7 -7 -7 -8 -6 -7 -8 -8 -8 -8 -7 -7 -8
-4 -4 -4 -3 -3 -4 -3 -4 -4 -3 -3 -4 -3 -3 -3 -3 -3 -4 -4 -4 -5 -6 -6 -6 -6 -6 -6 -5 -4 -6 -6 -5 -7 -7 -8 -8 -7 -7 -7 -8 -8 -7 -7 -8 -8
-4 -4 -4 -3 -4 -4 -4 -4 -3 -3 -4 -3 -3 -3 -3 -3 -2 -3 -4 -4 -4 -5 -7 -7 -6 -5 -7 -7 -6 -6 -6 -6 -7 -8 -8 -7 -8 -7 -8 -7 -7 -8 -7 -7 -7
-4 -4 -4 -3 -4 -4 -3 -3 -3 -4 -5 -4 -3 -3 -2 -3 -3 -3 -4 -4 -5 -6 -9 -9 -6 -7 -8 -8 -7 -7 -6 -6 -7 -7 -8 -8 -8 -7 -8 -7 -7 -8 -8 -8 -8
-4 -4 -4 -4 -4 -4 -4 -4 -4 -4 -4 -3 -3 -3 -3 -2 -3 -4 -5 -5 -5 -7 -9 -10 -9 -9 -9 -9 -8 -8 -7 -7 -7 -7 -8 -8 -7 -7 -8 -8 -7 -7 -7 -8 -7
-4 -4 -4 -4 -4 -4 -4 -4 -4 -4 -4 -4 -3 -4 -3 -3 -4 -6 -7 -7 -7 -8 -11 -11 -10 -10 -9 -9 -9 -9 -8 -8 -7 -7 -8 -8 -6 -7 -7 -7 -7 -7 -8 -7 -7
-5 -5 -5 -5 -4 -4 -4 -4 -4 -4 -5 -4 -5 -5 -5 -6 -6 -10 -9 -9 -9 -10 -12 -11 -11 -10 -10 -9 -10 -8 -9 -9 -9 -8 -8 -7 -7 -6 -7 -6 -6 -6 -7 -7 -7
-5 -5 -5 -5 -5 -5 -5 -5 -5 -5 -5 -5 -6 -6 -7 -9 -10 -12 -11 -11 -11 -12 -12 -12 -11 -11 -10 -10 -10 -10 -10 -9 -9 -9 -8 -7 -7 -6 -6 -6 -6 -7 -7 -7 -7
-5 -5 -5 -6 -6 -5 -5 -5 -5 -5 -6 -7 -7 -8 -9 -11 -12 -12 -11 -11 -12 -12 -12 -12 -11 -11 -11 -11 -11 -11 -10 -10 -10 -10 -9 -9 -7 -5 -7 -7 -6 -6 -6 -7 -7
-6 -6 -6 -6 -6 -6 -6 -5 -6 -6 -7 -7 -8 -10 -11 -12 -12 -12 -11 -12 -12 -12 -12 -12 -12 -11 -10 -10 -10 -11 -11 -11 -10 -10 -10 -9 -7 -5 -7 -7 -7 -6 -6 -7 -7
-6 -6 -7 -7 -6 -6 -6 -6 -6 -7 -7 -8 -9 -11 -12 -12 -12 -12 -12 -12 -12 -12 -13 -12 -12 -11 -11 -11 -11 -11 -11 -11 -11 -10 -10 -10 -8 -7 -8 -7 -8 -7 -6 -7 -7
-7 -7 -7 -7 -7 -7 -6 -7 -7 -7 -8 -9 -10 -11 -12 -13 -12 -12 -12 -12 -13 -13 -13 -12 -12 -12 -12 -12 -11 -12 -12 -11 -11 -11 -10 -10 -10 -7 -7 -7 -7 -7 -7 -7 -7
-7 -7 -7 -7 -7 -7 -7 -7 -8 -8 -8 -9 -10 -11 -12 -12 -13 -12 -12 -12 -12 -12 -12 -12 -11 -12 -11 -12 -11 -12 -12 -12 -12 -11 -11 -10 -9 -8 -8 -8 -7 -7 -7 -7 -8
-8 -8 -8 -8 -8 -7 -8 -8 -8 -9 -9 -10 -11 -11 -12 -12 -12 -12 -12 -12 -13 -12 -13 -11 -12 -12 -10 -11 -11 -12 -11 -12 -12 -10 -11 -10 -9 -9 -8 -8 -8 -8 -8 -8 -8
-8 -9 -9 -8 -8 -8 -9 -9 -9 -9 -10 -11 -12 -12 -12 -12 -13 -13 -13 -13 -13 -13 -13 -13 -12 -12 -11 -11 -11 -11 -11 -11 -12 -12 -11 -10 -9 -9 -9 -9 -8 -9 -9 -9 -9
-9 -9 -9 -9 -9 -9 -10 -9 -9 -10 -11 -11 -12 -12 -12 -13 -13 -13 -13 -13 -13 -13 -13 -13 -13 -13 -12 -11 -11 -11 -11 -11 -11 -11 -10 -10 -9 -10 -9 -9 -9 -9 -9 -9 -9
-10 -10 -9 -9 -9 -10 -10 -10 -10 -11 -11 -12 -13 -12 -13 -14 -13 -13 -13 -13 -13 -14 -14 -13 -13 -13 -12 -12 -12 -11 -11 -11 -11 -11 -11 -10 -9 -9 -9 -9 -10 -10 -9 -9 -9
-10 -10 -10 -10 -10 -10 -10 -10 -11 -12 -12 -13 -13 -13 -13 -13 -13 -13 -13 -13 -13 -13 -14 -14 -13 -13 -13 -12 -12 -12 -11 -11 -11 -11 -11 -11 -10 -10 -10 -9 -9 -9 -9 -9 -10
-10 -10 -11 -11 -11 -11 -11 -11 -11 -13 -12 -13 -13 -13 -14 -14 -14 -13 -13 -13 -13 -13 -14 -14 -13 -13 -12 -13 -12 -12 -12 -11 -11 -11 -11 -11 -11 -10 -10 -10 -9 -9 -10 -10 -9
Height
5923 5923 5923 5923 5923 5923 5923 5922 5922 5922 5922 5922 5921 5920 5920 5920 5919 5919 5918 5918 5917 5918 5918 5917 5917 5918 5918 5916 5913 5912 5911 5908 5908 5907 5907 5909 5912 5913 5911 5910 5909 5905 5904 5900 5897
5921 5921 5920 5920 5920 5920 5920 5920 5919 5919 5919 5919 5918 5918 5918 5917 5917 5916 5916 5916 5916 5915 5916 5915 5915 5916 5916 5914 5912 5911 5910 5907 5905 5905 5906 5906 5909 5911 5912 5911 5910 5907 5903 5904 5899
5918 5917 5917 5917 5916 5916 5915 5915 5915 5915 5915 5915 5915 5915 5915 5915 5915 5913 5912 5912 5912 5912 5912 5912 5912 5913 5913 5911 5910 5910 5908 5906 5903 5902 5904 5905 5907 5911 5914 5913 5911 5907 5903 5903 5901
5913 5912 5912 5911 5910 5910 5910 5909 5909 5909 5909 5909 5909 5910 5910 5910 5913 5909 5908 5907 5908 5909 5908 5907 5906 5910 5910 5908 5907 5908 5908 5906 5905 5904 5904 5905 5907 5910 5912 5912 5910 5908 5906 5903 5902
5908 5907 5907 5906 5906 5905 5904 5904 5903 5903 5903 5904 5904 5903 5902 5903 5905 5903 5904 5903 5903 5904 5904 5903 5904 5906 5906 5903 5901 5904 5904 5907 5907 5905 5905 5906 5907 5907 5910 5911 5911 5910 5908 5906 5902
5906 5905 5905 5904 5903 5902 5902 5901 5900 5900 5900 5900 5899 5899 5897 5899 5896 5894 5897 5898 5897 5898 5898 5900 5900 5898 5899 5899 5897 5901 5902 5906 5907 5906 5905 5905 5905 5905 5909 5909 5910 5910 5909 5907 5902
5904 5903 5902 5902 5901 5900 5899 5897 5897 5897 5895 5895 5894 5893 5893 5895 5890 5889 5889 5891 5892 5892 5892 5891 5891 5892 5893 5895 5892 5894 5898 5903 5908 5905 5903 5903 5904 5905 5907 5906 5907 5908 5908 5906 5904
5902 5901 5900 5899 5898 5897 5895 5895 5894 5892 5890 5889 5888 5887 5886 5885 5882 5884 5881 5880 5882 5882 5884 5883 5882 5885 5887 5890 5890 5892 5895 5899 5904 5903 5902 5899 5901 5902 5902 5903 5904 5906 5906 5903 5904
5898 5897 5896 5895 5894 5892 5890 5890 5887 5886 5886 5885 5882 5880 5879 5878 5875 5872 5870 5872 5871 5870 5871 5871 5874 5876 5878 5880 5884 5886 5889 5894 5898 5898 5896 5895 5896 5898 5896 5898 5900 5903 5904 5905 5903
5894 5893 5890 5890 5890 5887 5886 5884 5881 5881 5880 5875 5874 5874 5871 5869 5866 5862 5859 5859 5860 5860 5859 5857 5861 5866 5870 5870 5876 5884 5883 5886 5890 5893 5891 5891 5890 5890 5889 5889 5895 5897 5899 5901 5901
5889 5887 5885 5884 5883 5882 5880 5878 5877 5877 5871 5868 5866 5865 5862 5859 5856 5853 5849 5847 5846 5847 5844 5848 5851 5854 5860 5866 5868 5870 5874 5880 5884 5888 5883 5886 5884 5887 5885 5885 5888 5892 5895 5896 5898
5884 5881 5879 5878 5877 5875 5873 5872 5871 5869 5864 5858 5857 5855 5853 5849 5845 5840 5833 5834 5831 5831 5835 5836 5835 5848 5855 5855 5859 5862 5864 5871 5878 5882 5875 5880 5878 5881 5879 5881 5884 5886 5890 5892 5893
5878 5876 5874 5872 5870 5869 5867 5865 5862 5859 5854 5851 5846 5844 5840 5835 5830 5828 5821 5820 5816 5816 5819 5824 5833 5842 5845 5848 5849 5853 5857 5863 5870 5873 5871 5871 5871 5874 5876 5877 5878 5880 5884 5885 5888
5872 5869 5868 5865 5866 5863 5860 5856 5853 5850 5845 5841 5837 5830 5825 5821 5818 5812 5807 5806 5802 5800 5807 5815 5828 5831 5837 5840 5843 5844 5852 5854 5858 5861 5864 5865 5865 5868 5870 5872 5875 5876 5877 5880 5884
5865 5863 5861 5859 5858 5855 5853 5848 5844 5841 5835 5829 5825 5817 5811 5806 5802 5800 5793 5791 5792 5794 5801 5807 5820 5825 5829 5835 5840 5845 5847 5848 5849 5849 5852 5857 5855 5860 5864 5867 5870 5872 5873 5875 5879
5858 5856 5854 5853 5850 5848 5844 5840 5836 5832 5823 5820 5815 5808 5801 5795 5794 5790 5786 5785 5787 5791 5796 5803 5811 5816 5823 5830 5834 5838 5839 5839 5840 5841 5840 5848 5849 5850 5857 5863 5864 5864 5867 5871 5873
5850 5848 5846 5845 5842 5839 5835 5831 5828 5822 5816 5811 5806 5799 5793 5791 5793 5787 5782 5781 5782 5787 5792 5800 5806 5812 5816 5821 5827 5828 5832 5833 5835 5836 5838 5843 5842 5845 5853 5853 5853 5855 5859 5863 5867
5841 5839 5839 5837 5833 5829 5827 5823 5818 5813 5806 5801 5798 5793 5789 5790 5792 5788 5783 5779 5782 5788 5792 5796 5801 5808 5814 5815 5822 5824 5828 5829 5828 5832 5834 5836 5834 5840 5843 5844 5846 5847 5851 5854 5858
5833 5831 5830 5828 5824 5821 5819 5814 5809 5804 5800 5794 5790 5788 5786 5786 5787 5788 5785 5781 5783 5787 5788 5791 5794 5799 5804 5810 5814 5818 5819 5825 5825 5826 5828 5831 5830 5833 5837 5841 5841 5842 5847 5850 5853
5824 5822 5822 5820 5816 5813 5810 5805 5801 5796 5792 5788 5784 5782 5782 5782 5783 5784 5783 5784 5783 5782 5779 5784 5788 5794 5800 5803 5805 5806 5813 5817 5819 5820 5822 5825 5825 5829 5833 5835 5837 5840 5844 5847 5850
5815 5813 5813 5811 5807 5805 5801 5796 5792 5788 5786 5784 5780 5778 5777 5779 5779 5779 5781 5781 5782 5782 5783 5782 5784 5788 5791 5794 5797 5803 5805 5807 5809 5811 5816 5819 5822 5826 5829 5830 5832 5834 5837 5841 5845
5806 5805 5804 5801 5799 5796 5793 5789 5786 5782 5779 5777 5776 5774 5771 5774 5777 5777 5778 5778 5778 5779 5780 5780 5780 5781 5786 5792 5794 5796 5799 5800 5803 5809 5811 5814 5816 5821 5823 5826 5829 5830 5834 5838 5839
5797 5796 5795 5793 5790 5788 5786 5782 5779 5777 5773 5770 5768 5767 5765 5766 5770 5771 5774 5775 5775 5775 5776 5778 5777 5777 5781 5786 5785 5789 5791 5795 5798 5797 5804 5810 5811 5817 5820 5823 5824 5827 5829 5831 5832
5788 5788 5786 5785 5783 5781 5779 5774 5773 5771 5767 5765 5763 5761 5760 5760 5761 5766 5767 5771 5771 5771 5771 5774 5776 5776 5778 5781 5782 5785 5788 5791 5792 5795 5799 5803 5807 5811 5814 5818 5820 5825 5827 5828 5828
5780 5779 5777 5776 5773 5772 5770 5769 5767 5764 5762 5758 5757 5755 5755 5754 5755 5757 5760 5765 5767 5766 5765 5767 5769 5770 5773 5777 5777 5777 5780 5786 5788 5792 5794 5799 5801 5802 5805 5805 5810 5814 5817 5820 5821
5771 5771 5768 5767 5765 5763 5761 5762 5760 5758 5756 5753 5752 5752 5751 5750 5751 5753 5753 5756 5761 5761 5757 5759 5764 5763 5766 5771 5773 5771 5776 5780 5781 5786 5787 5789 5795 5797 5798 5800 5804 5808 5808 5809 5811
5761 5760 5760 5759 5757 5757 5755 5754 5752 5751 5748 5747 5747 5746 5748 5747 5746 5746 5746 5749 5750 5753 5754 5755 5756 5755 5758 5764 5766 5768 5766 5773 5773 5777 5782 5783 5787 5792 5794 5797 5801 5801 5799 5799 5802
Wind_Speed
13 14 15 15 15 15 15 15 16 16 16 15 14 14 14 13 13 10 11 13 17 17 17 18 18 14 13 13 13 8 9 10 6 6 13 18 21 21 25 22 18 22 23 22 22
20 20 21 21 21 21 21 21 21 20 20 20 20 20 18 18 17 16 15 14 14 17 19 20 21 19 16 19 16 13 12 12 12 6 3 11 15 17 24 18 21 20 21 20 20
23 24 25 25 26 27 28 28 28 27 27 27 25 24 23 23 22 20 21 19 17 17 18 21 24 24 21 22 21 17 15 10 11 9 5 4 6 11 16 19 21 20 16 17 16
19 20 21 22 23 23 24 25 26 28 29 29 31 32 30 28 25 27 26 25 24 20 20 22 25 24 25 27 31 21 21 13 6 6 7 4 1 5 12 22 21 12 16 15 13
13 10 9 11 13 16 19 21 23 23 24 25 27 30 32 32 28 31 28 26 27 27 23 24 24 24 30 33 35 25 25 20 15 10 8 3 4 4 6 17 14 9 10 12 16
8 9 11 12 12 13 13 14 16 16 18 19 21 21 22 22 30 35 32 29 30 29 31 27 25 29 32 37 40 33 30 25 20 16 14 13 12 6 6 11 11 14 7 12 13
7 8 10 12 13 15 17 17 17 16 18 18 18 20 23 18 26 27 29 29 31 31 29 31 33 33 34 35 42 38 32 25 22 22 23 20 19 14 14 10 10 9 19 7 12
12 12 14 16 17 19 21 21 20 20 20 22 23 25 23 25 28 27 29 32 29 36 35 35 36 37 37 35 39 36 32 24 13 17 23 27 14 11 17 9 14 7 8 12 7
16 18 20 20 20 20 22 23 25 25 24 26 26 26 25 27 27 32 37 36 38 38 40 44 45 39 40 40 37 36 30 22 19 22 24 27 18 19 14 17 13 12 4 7 10
22 23 25 23 22 24 26 27 28 25 26 31 32 32 32 34 33 34 37 40 40 44 46 48 47 47 44 43 36 30 33 27 27 28 29 27 27 24 16 14 15 17 10 7 10
25 27 27 26 26 26 26 24 25 25 30 33 34 35 34 38 39 38 42 45 48 49 52 51 49 49 42 36 35 31 36 29 35 33 36 31 29 22 16 19 17 17 16 14 12
27 27 27 26 26 26 25 26 27 27 29 38 40 40 42 45 42 39 44 47 53 54 50 54 55 44 35 35 34 34 33 32 37 39 41 33 32 29 20 23 19 18 17 19 18
26 26 27 28 26 26 28 31 32 34 38 40 44 45 42 37 42 43 44 47 54 57 53 55 51 41 37 34 33 31 34 31 35 45 41 40 39 30 22 25 27 26 22 24 20
27 30 30 29 26 29 30 32 34 35 39 46 48 42 42 45 45 39 40 43 54 57 49 47 46 45 38 35 30 32 29 29 37 48 46 39 45 36 34 31 32 32 33 28 25
31 30 28 27 29 30 30 33 37 39 45 45 40 42 43 45 46 29 36 36 43 51 43 44 40 45 40 34 23 24 26 28 29 43 47 50 49 44 37 36 29 31 33 31 27
33 30 30 29 30 30 34 36 39 39 43 41 41 43 40 36 29 26 28 27 32 37 36 34 34 42 39 34 27 23 32 30 28 27 43 52 51 50 41 31 35 37 38 29 30
31 31 31 30 33 34 35 37 38 39 40 39 37 35 33 29 16 24 27 26 34 36 33 30 34 38 38 36 31 29 32 31 28 26 31 28 36 34 19 28 33 34 31 32 29
32 34 34 33 33 34 35 37 39 40 38 37 32 26 28 25 16 14 17 21 29 35 31 31 30 30 38 40 32 33 34 29 28 26 25 25 30 27 24 30 31 33 37 36 31
35 35 35 33 35 35 36 36 37 38 38 34 27 20 28 29 23 21 11 21 28 32 33 34 32 31 32 32 28 35 34 29 26 24 21 20 28 24 25 25 26 33 30 30 26
38 38 35 34 33 33 35 36 36 37 37 33 24 24 29 26 27 24 19 16 23 33 42 37 37 33 28 32 32 32 30 28 24 29 24 23 27 27 24 22 22 25 21 22 16
38 39 36 33 32 34 34 35 34 35 35 31 23 24 27 33 27 27 21 16 21 26 27 34 38 39 34 35 39 30 34 29 33 31 22 26 22 26 26 21 23 24 20 18 13
40 37 34 32 34 35 34 34 35 32 33 30 23 25 27 28 34 32 24 25 24 22 21 28 27 30 24 30 33 30 35 32 36 27 28 27 21 13 29 24 12 14 9 14 19
36 34 33 34 35 34 32 32 32 31 30 26 25 25 28 27 32 35 32 24 23 29 26 28 28 28 28 22 37 33 37 25 33 32 33 27 21 15 22 20 25 28 25 28 30
33 33 33 35 34 31 29 32 29 27 25 25 25 26 25 29 34 33 34 28 26 25 32 26 28 38 29 18 33 34 31 31 34 24 31 27 24 22 23 29 22 23 26 32 37
32 33 35 33 32 29 31 29 26 26 22 25 25 24 21 25 29 35 37 30 29 28 31 29 28 29 27 27 20 36 35 28 28 27 31 28 30 29 29 30 26 25 27 30 28
32 33 34 31 31 29 30 27 25 23 20 22 21 24 22 20 23 27 31 37 31 34 35 30 29 34 32 24 19 17 18 25 29 32 31 35 32 36 36 35 33 31 29 25 23
33 33 32 30 30 28 29 26 24 18 20 20 18 21 22 19 20 23 27 29 34 35 34 35 34 44 31 25 20 20 17 27 29 38 38 36 37 37 32 31 28 32 41 36 33
Wind_Direction
284 285 285 285 285 285 285 284 283 282 281 278 278 281 280 280 278 263 253 260 262 254 243 239 237 211 185 184 173 168 114 102 81 330 36 26 11 15 355 10 22 51 47 35 29
280 280 280 281 281 280 278 278 278 277 276 276 276 275 273 275 273 276 267 260 258 265 258 246 240 230 212 205 191 188 181 169 123 106 44 44 3 3 352 16 20 20 53 44 30
282 283 283 282 281 282 281 281 280 278 278 277 276 274 275 275 278 278 273 267 256 250 255 256 246 234 223 219 210 202 205 210 139 138 195 90 21 345 339 10 16 23 28 52 32
292 290 288 285 283 281 278 277 277 277 278 280 281 279 276 271 276 274 272 272 269 258 247 247 253 234 233 232 235 206 236 255 240 189 198 156 295 332 334 325 344 28 26 42 49
287 287 293 298 296 294 289 284 280 281 281 279 278 278 276 274 273 264 268 272 270 268 257 249 250 242 240 241 242 234 238 257 287 250 252 227 272 284 302 300 355 328 19 16 40
308 306 309 309 306 303 298 297 300 300 299 297 298 298 291 291 276 273 264 258 263 266 267 262 249 244 234 238 246 246 238 247 280 256 236 247 254 279 287 313 310 333 6 9 38
291 304 311 313 309 305 304 307 307 312 309 307 304 295 292 309 282 282 283 271 261 256 255 256 254 249 246 237 244 251 255 255 248 264 227 236 243 257 269 313 309 312 313 65 29
291 297 301 301 298 296 295 298 296 298 300 300 302 305 302 298 286 283 270 267 259 258 253 252 249 251 253 245 248 252 256 250 252 241 230 236 212 217 244 298 321 293 357 1 11
291 295 296 298 299 299 301 300 293 291 298 302 300 299 292 294 287 276 278 274 265 253 251 249 252 247 245 247 245 250 251 241 222 207 198 225 209 221 218 251 289 289 329 311 343
291 295 296 293 295 294 299 299 296 293 302 295 294 297 297 297 286 269 262 262 260 257 251 248 245 248 248 243 246 249 247 227 206 199 209 218 229 222 239 250 263 270 269 286 308
291 292 292 293 294 292 298 300 306 303 303 297 299 297 296 295 296 283 264 262 259 253 253 250 252 250 246 249 241 231 234 227 208 198 222 221 237 219 257 248 254 253 278 289 304
290 294 294 294 293 297 297 299 302 303 303 304 300 300 301 299 300 292 270 268 258 250 246 247 252 246 241 243 245 238 226 225 209 200 228 219 229 220 230 255 255 255 268 285 295
288 289 292 294 292 294 296 296 297 301 301 302 303 306 306 301 296 296 282 273 258 246 237 241 249 245 239 235 239 235 233 217 211 206 222 227 228 219 207 245 247 253 258 264 283
287 290 291 289 288 293 296 300 304 305 302 304 310 310 303 302 301 298 283 270 255 242 233 235 237 235 234 230 233 233 233 221 208 212 220 232 235 237 220 223 239 250 259 264 269
285 291 287 288 294 296 299 303 306 307 310 311 314 307 306 306 311 295 281 275 256 235 229 234 233 232 231 230 232 230 216 220 216 221 222 223 243 246 237 241 247 251 261 272 262
284 285 285 292 293 297 303 307 310 309 313 313 311 311 308 303 307 288 278 290 252 226 227 226 225 221 229 224 230 226 199 208 212 220 223 225 236 242 245 252 255 252 254 245 247
287 285 286 292 296 299 303 308 307 309 311 312 313 309 302 292 281 285 289 265 235 215 219 220 227 226 217 224 222 231 217 222 228 237 240 243 236 238 226 228 236 234 227 224 240
288 288 289 295 298 300 304 307 307 310 310 311 309 296 275 277 278 266 262 248 221 220 219 229 230 235 228 227 228 228 223 236 251 240 253 248 247 226 207 213 225 226 221 219 232
291 291 293 295 298 300 304 305 307 308 308 309 301 273 255 257 272 251 244 235 218 217 229 232 234 224 227 227 228 216 223 231 254 245 262 260 251 218 215 210 226 231 222 224 235
292 294 296 299 297 298 300 302 305 308 309 309 295 275 244 247 259 257 244 221 224 227 233 230 241 241 239 245 229 237 229 241 237 249 253 262 267 207 211 219 220 228 230 240 247
293 294 294 296 294 297 297 301 303 303 305 304 294 266 249 235 244 251 242 228 221 234 243 247 244 246 237 230 222 221 232 232 241 244 245 264 263 210 213 232 223 220 235 235 241
291 290 292 292 292 296 298 299 301 302 301 301 295 278 262 248 241 245 244 236 244 237 242 251 250 252 242 220 225 225 227 236 234 231 243 254 246 227 225 229 225 256 261 245 250
286 284 285 288 293 294 295 295 295 298 300 300 288 278 269 255 246 245 248 249 251 248 243 241 250 256 258 239 227 233 232 217 263 224 249 241 227 244 239 242 219 220 229 228 235
283 280 282 289 290 289 289 290 296 300 299 293 283 277 279 263 250 244 245 242 249 255 257 242 260 254 262 254 222 227 225 231 243 251 239 242 226 233 245 250 224 220 233 229 236
280 279 284 289 287 285 286 290 293 295 298 291 286 284 278 267 257 254 249 242 237 244 257 259 257 254 254 249 243 231 235 239 240 255 241 246 223 224 232 235 243 249 261 280 278
280 282 285 284 280 279 283 287 289 296 289 286 290 276 280 273 263 263 266 258 234 241 253 263 272 258 242 234 234 250 231 214 224 253 232 249 249 230 244 245 246 244 242 246 252
276 278 278 273 269 277 282 285 289 286 277 270 282 286 278 275 271 264 259 256 256 244 253 259 265 281 219 206 220 217 228 227 234 236 237 248 233 238 248 254 247 251 244 230 236